[[{"header":{"parameterUnit":"m.s-1","parameterCategory":1,"la1":30.2992,"la2":30.254,"lo1":-89.0895,"lo2":-89.0443,"dy":0.0025,"dx":0.0025,"nx":19,"ny":19,"refTime":"2026-04-08T09:00:00:Z","depth":0,"parameterNumber":2,"parameterNumberName":"U-component_of_WINDS"},"data":[0,0,0,-6.3429,-6.3433,-6.3597,-6.3597,-6.3855,-6.3858,0,0,0,0,0,0,0,0,0,0,0,-6.3413,-6.3416,-6.3429,-6.3434,-6.3597,-6.3597,-6.3855,-6.3858,0,0,0,0,0,0,0,0,0,0,0,-6.3411,-6.3415,-6.3418,-6.3435,-6.3597,-6.3597,-6.3854,-6.3713,0,0,0,0,0,0,0,0,0,0,-6.3546,-6.3562,-6.3414,-6.3419,-6.3436,-6.3597,-6.3597,-6.3705,-6.3722,-6.3803,0,-6.3885,0,-6.3876,-6.3879,-6.388,0,0,0,-6.341,-6.3549,-6.3564,-6.3419,-6.3438,-6.3596,-6.3516,-6.3714,-6.3733,-6.3825,-6.3889,-6.3897,-6.3881,-6.3881,-6.3882,-6.4433,-6.4437,0,0,-6.3401,-6.3459,-6.3552,-6.3578,-6.3558,-6.3511,-6.3522,-6.3724,-6.3797,-6.3889,-6.3902,-6.3885,-6.3883,-6.3885,-6.443,-6.4434,0,0,0,-6.3391,-6.3454,-6.3463,-6.3569,-6.3594,-6.3517,-6.3529,-6.3788,-6.3786,-6.3904,-6.3888,-6.3884,-6.3888,-6.4426,-6.4431,-6.4671,0,0,0,-6.3384,-6.3448,-6.346,-6.3498,-6.3592,-6.3694,-6.3589,-6.3772,-6.3793,-6.3887,-6.3885,-6.3891,-6.4422,-6.4429,-6.4656,-6.4775,0,0,0,-6.3391,-6.3448,-6.3483,-6.35,-6.3573,-6.3689,-6.3698,-6.3775,-6.3784,-6.388,-6.3892,-6.4419,-6.4427,-6.4642,-6.4752,-6.4936,0,0,0,-6.3415,-6.3695,-6.3488,-6.3793,-6.3572,-6.3837,-6.3696,-6.389,-6.4001,-6.3886,-6.4422,-6.4431,-6.4637,-6.4738,-6.4922,-6.5102,-6.5182,0,0,-6.38,-6.3743,-6.3918,-6.3738,-6.4054,-6.3807,-6.4157,-6.4203,-6.4159,-6.4344,-6.4356,-6.4661,-6.475,-6.4933,-6.5614,-6.5679,0,0,0,-6.406,-6.4186,-6.4257,-6.4365,-6.4407,-6.4452,-6.4438,-6.4454,-6.4609,-6.4266,-6.4775,-6.4827,-6.4932,-6.5015,-6.507,-6.5155,-6.4472,-6.4471,-6.447,-6.4689,-6.4616,-6.49,-6.4847,-6.4954,-6.4936,-6.5015,-6.5033,-6.4929,-6.5051,-6.5105,-6.5527,-6.5627,-6.5668,-6.5758,-6.5194,-6.5195,-6.5196,-6.5197,-6.5246,-6.5413,-6.5267,-6.549,-6.5411,-6.5596,-6.5589,-6.5509,-6.5669,-6.5481,-6.5569,-6.537,-6.5741,-6.5816,-6.5214,-6.5211,-6.5209,-6.5207,-6.5206,-6.565,-6.5717,-6.5733,-6.588,-6.6001,-6.5937,-6.6097,-6.6019,-6.5947,-6.6035,-6.6083,-6.6079,-6.6064,-6.6063,-6.6065,-6.6066,-6.6067,-6.6068,-6.6069,-6.6063,-6.6072,-6.6218,-6.6285,-6.6342,-6.6409,-6.6392,-6.6446,-6.6486,-6.6416,-6.6416,-6.63,-6.5791,-6.5665,-6.6092,-6.6088,-6.6085,-6.6083,-6.6081,-6.6655,-6.6508,-6.6733,-6.6792,-6.6862,-6.6987,-6.6884,-6.7002,-6.7035,-6.7116,-6.698,-6.6617,-6.6553,-6.6508,-6.6403,-6.6995,-6.6995,-6.6995,-6.6996,-6.6996,-6.6955,-6.7166,-6.7264,-6.7351,-6.7281,-6.7535,-6.7524,-6.7489,-6.7504,-6.7407,-6.7261,-6.7219,-6.7179,-6.7121,-6.7021,-6.7757,-6.7758,-6.7759,-6.7355,-6.7318,-6.7551,-6.7515,-6.7564,-6.7607,-6.7843,-6.7959,-6.7889,-6.7788,-6.7515,-6.7482,-6.7245,-6.7172,-6.7066,-6.6977,-6.6792,0,0]},{"header":{"parameterUnit":"m.s-1","parameterCategory":1,"la1":30.2992,"la2":30.254,"lo1":-89.0895,"lo2":-89.0443,"dy":0.0025,"dx":0.0025,"nx":19,"ny":19,"refTime":"2026-04-08T09:00:00:Z","depth":0,"parameterNumber":3,"parameterNumberName":"V-component_of_WINDS"},"data":[0,0,0,-0.877,-0.8771,-0.8831,-0.8831,-0.89,-0.8901,0,0,0,0,0,0,0,0,0,0,0,-0.8747,-0.8747,-0.877,-0.8771,-0.8831,-0.8831,-0.89,-0.8901,0,0,0,0,0,0,0,0,0,0,0,-0.8747,-0.8747,-0.8748,-0.8771,-0.8831,-0.8831,-0.89,-0.8858,0,0,0,0,0,0,0,0,0,0,-0.88,-0.8775,-0.8747,-0.8748,-0.8771,-0.8831,-0.8831,-0.8856,-0.886,-0.887,0,-0.8877,0,-0.889,-0.8905,-0.8905,0,0,0,-0.8775,-0.8771,-0.8792,-0.8748,-0.8772,-0.8831,-0.8805,-0.8858,-0.8863,-0.8876,-0.8878,-0.8881,-0.8891,-0.8905,-0.8906,-0.8946,-0.8946,0,0,-0.8771,-0.8755,-0.8788,-0.8795,-0.8785,-0.8803,-0.8807,-0.8862,-0.8863,-0.8878,-0.8882,-0.8892,-0.8906,-0.8906,-0.8946,-0.8946,0,0,0,-0.8759,-0.8753,-0.8772,-0.8792,-0.8803,-0.8805,-0.8809,-0.8861,-0.8868,-0.8883,-0.8893,-0.8906,-0.8907,-0.8946,-0.8946,-0.8931,0,0,0,-0.8757,-0.8746,-0.8771,-0.8761,-0.8802,-0.8833,-0.8807,-0.8864,-0.8871,-0.8892,-0.8906,-0.8907,-0.8946,-0.8946,-0.8932,-0.8927,0,0,0,-0.8745,-0.8745,-0.8752,-0.876,-0.8786,-0.8832,-0.8843,-0.8866,-0.8877,-0.8905,-0.8908,-0.8946,-0.8946,-0.8932,-0.8928,-0.8932,0,0,0,-0.8727,-0.8738,-0.8751,-0.8767,-0.8785,-0.8822,-0.8843,-0.8871,-0.8894,-0.8906,-0.8946,-0.8946,-0.8932,-0.8928,-0.8933,-0.8933,-0.8932,0,0,-0.8732,-0.8738,-0.8749,-0.8762,-0.8793,-0.8814,-0.8843,-0.8879,-0.8896,-0.8929,-0.893,-0.8932,-0.8928,-0.8932,-0.8932,-0.8931,0,0,0,-0.8745,-0.8753,-0.8764,-0.8785,-0.8812,-0.8835,-0.8868,-0.8881,-0.8909,-0.891,-0.8935,-0.8934,-0.8937,-0.8938,-0.8937,-0.8941,-0.8946,-0.8946,-0.8946,-0.8731,-0.8752,-0.8771,-0.8798,-0.8818,-0.8851,-0.8869,-0.8892,-0.8909,-0.8914,-0.8924,-0.8921,-0.8921,-0.8921,-0.8924,-0.8926,-0.8926,-0.8926,-0.8926,-0.8741,-0.8754,-0.8774,-0.8799,-0.8821,-0.8843,-0.8875,-0.8885,-0.8908,-0.8915,-0.892,-0.8925,-0.8919,-0.8923,-0.8925,-0.8925,-0.8925,-0.8925,-0.8925,-0.8733,-0.8743,-0.8758,-0.8789,-0.881,-0.8838,-0.8858,-0.8878,-0.8896,-0.89,-0.8912,-0.8913,-0.8915,-0.8905,-0.8905,-0.8905,-0.8905,-0.8905,-0.8905,-0.872,-0.8737,-0.8752,-0.878,-0.8795,-0.8817,-0.885,-0.8865,-0.8887,-0.8899,-0.8899,-0.8914,-0.8914,-0.8914,-0.8904,-0.8904,-0.8904,-0.8904,-0.8904,-0.8721,-0.8724,-0.8747,-0.8761,-0.8796,-0.8815,-0.8839,-0.8868,-0.8883,-0.8892,-0.8906,-0.8903,-0.8911,-0.8912,-0.8911,-0.8902,-0.8902,-0.8902,-0.8902,-0.8715,-0.872,-0.8747,-0.8769,-0.8793,-0.8817,-0.8841,-0.8866,-0.8892,-0.8903,-0.8907,-0.8908,-0.8908,-0.8916,-0.8917,-0.8917,-0.8909,-0.8909,-0.8909,-0.8717,-0.8725,-0.8743,-0.8768,-0.8795,-0.8819,-0.8842,-0.8866,-0.8897,-0.891,-0.8911,-0.8911,-0.8913,-0.8913,-0.8926,-0.8927,-0.8927,0,0]}]]